Weather in Sayasan

Russia / Chechen Republic     43°03′28″N   46°16′59″E
temp.,
°C
wind,
m/s
gust,
m/s
humid.,
%
clouds,
%
prec.,
mm/h
press.,
hPa
HPBL,
m
16 may, sun
sun1600:00+16sse335928 0.0 101339
03:00+16s335619 0.0 101245
06:00+17s34585 0.0 101166
09:00+25nne12375 0.0 1009964
12:00+27nne33370 0.0 10081604
15:00+28n33320 0.0 10061509
18:00+24se01550 0.0 100513
21:00+19s44464 0.0 100752
17 may, mon
mon1700:00+17s4435100 0.0 100763
03:00+16s44315 0.0 100758
06:00+17s334414 0.0 100754
09:00+27nne122798 0.0 1005707
12:00+29nne23250 0.0 10041820
15:00+28n32310 0.0 10041190
18:00+23nnw1160100 0.0 100414
21:00+19ssw226998 0.0 100729
18 may, tue
tue1800:00+18s225959 0.0 100622
03:00+15sw116512 0.0 100613
06:00+15w3785100 0.0 1009709
09:00+14wnw2796100 1.4 1010649
12:00+14w3695100 1.9 1011517
15:00+16w1279100 2.7 1011549
18:00+16w128187 0.9 1012275
21:00+14ssw228695 1.3 101327
19 may, wed
wed1900:00+12s22886 0.0 101433
03:00+12s32870 0.0 101331
06:00+15sse11750 0.0 101245
09:00+20n32563 0.0 1011998
12:00+19nnw447194 1.3 10121062
15:00+14s1396100 8.2 1016117
18:00+15ssw128671 0.6 1016107
21:00+13w019487 1.1 101820
20 may, thu
thu2000:00+13nw119699 0.5 101847
03:00+13n129998 1.1 1019133
06:00+11se119485 0.6 102170
09:00+16nne226838 0.7 1020765
12:00+20nne445529 0.0 10181186
15:00+20nne445413 0.0 10171085
18:00+16n11700 0.0 1018212
21:00+14sse21830 0.0 101913